STARLINK-35955, 66635

Orbit data source: Space-Track

STARLINK-35955, 66635 is a payload satellite owned by SpaceX/Seattle (US) in LEO that was launched on Sun, 23 Nov 2025 UTC via an FALCON 9 launch vehicle from the Air Force Western Test Range (AFWTR). Payload-class satellites include a variety of spacecraft equipped with specific instruments for various scientific and technological missions. These include communications satellites like Starlink; space stations such as the ISS; scientific satellites like the Hubble; Earth observation satellites from companies like Planet Labs, Umbra, and HawkEye 360; GPS; miniature CubeSats for education and research; and military/defense satellites.

Loading next visibility...
Identifier
66635, 2025-271U
Orbit
LEO
Country
Flag of USUS
Related business
Manufacturer
SpaceX/Seattle
Mission
Operational Commercial Communications
Bus & Motor
STARLINK V2MO, Unknown motor
Mass
575 kg wet, ~530 kg dry
Launch date (UTC)
2025-11-23 (5 months ago)
Launch vehicle
FALCON 9
Launch site
Air Force Western Test Range (AFWTR)
Object type
Payload
Rocket body
Debris
Shape & HBR
Box + 2 Pan, 17.7 m
Radar Cross Section
36.964 m²

Expand to show TLE details & history
Last TLE update: 7 hours ago

TLE from 7 hours ago
0 STARLINK-35955
1 66635U 25271U   26128.24799399  .00018219  00000-0  62510-3 0  9992
2 66635  53.1586 223.4097 0001356  68.8273 291.2872 15.30233137 26683
Epoch: 2026-05-08T05:57Z
TLE epoch observation values (Epoch: 2026-05-08T05:57:06.680Z)
Latitude
-0.00008°
Longitude
-91.9507°
Altitude
475.678 km
Speed
7.629 km/s
True Right ascension
14h 53m 38s
True Declination
0° 00' 00"
Sunlit
Object was in full shadow at epoch
Visualization orbit readout
Latitude
Unknown
Longitude
Unknown
Altitude
Unknown
Speed
Unknown
Apparent Right ascension
Unknown
Apparent Declination
Unknown
Sunlit
N/A
Visualization observer readout
Local Sidereal Time
20:51:09
Azimuth
Unknown
Elevation
Unknown
Doppler factor
Unknown
Orbital elements
Apogee altitude
476.302 km
Perigee altitude
474.443 km
Semi-major axis
6,853.51 km
Eccentricity
0.00014
Inclination
53.1586°
RAAN
223.4097°
Arg. of periapsis
68.8273°
True anomaly
291.27272°
Mean anomaly
291.2872°
Eccentric anomaly
291.27996°
Mean motion
3.82537 °/min
Orbital period
94.11 mins
BSTAR
0.0006251
Loading maneuver chart data...
Computing Atmospheric mass density...
Loading historical data...
Loading historical data...
Loading historical data...
Loading historical data...
Loading historical data...
Loading historical data...
Loading historical data...

Documentation

Showing up to 5 results
|